Location: Arrakis Observatory
(44.1122°N, 95.7153°W)
Time: 19:37:46
(UTC-06:00)

Iridium 35 - Visible Passes

Search period start: 06 March 2015 00:00
Search period end: 16 March 2015 01:00
Orbit: 776 x 779 km, 86.4° (Epoch: 06 March)

Date Brightness Start Highest point End Pass type
(mag) Time Alt. Az. Time Alt. Az. Time Alt. Az.
06 Mar 7.0 20:55:25 10° N 20:56:45 17° NNE 20:56:45 17° NNE visible
06 Mar 7.9 22:36:38 10° NNW 22:37:15 13° NNW 22:37:15 13° NNW visible
07 Mar 7.0 20:22:25 10° NNE 20:23:41 15° NNE 20:23:41 15° NNE visible
07 Mar 7.3 22:02:34 10° NNW 22:04:10 19° NNW 22:04:10 19° NNW visible
08 Mar 7.1 20:50:09 10° NE 20:50:37 11° NE 20:50:37 11° NE visible
08 Mar 6.7 22:28:50 10° N 22:31:07 27° N 22:31:07 27° N visible
09 Mar 6.3 21:55:21 10° N 21:58:04 30° NNE 21:58:04 30° NNE visible
09 Mar 7.8 23:37:19 10° NW 23:38:35 14° NW 23:38:35 14° NW visible
10 Mar 6.2 21:22:08 10° NNE 21:25:05 26° NE 21:25:05 26° NE visible
10 Mar 7.1 23:02:55 10° NNW 23:05:34 24° NW 23:05:34 24° NW visible
11 Mar 6.5 20:49:20 10° NNE 20:52:05 18° ENE 20:52:05 18° ENE visible
11 Mar 6.1 22:29:01 10° NNW 22:32:36 40° NW 22:32:36 40° NW visible
12 Mar 6.9 20:18:02 10° ENE 20:18:53 10° ENE 20:19:10 10° ENE visible
12 Mar 5.3 21:55:22 10° N 21:59:40 60° N 21:59:40 60° N visible
12 Mar 7.8 23:38:29 10° NW 23:40:11 12° WNW 23:40:11 12° WNW visible
13 Mar 5.3 21:21:59 10° N 21:26:47 46° ENE 21:26:47 46° ENE visible
13 Mar 7.1 23:03:27 10° NNW 23:07:17 22° WNW 23:07:17 22° WNW visible
14 Mar 5.9 20:48:54 10° NNE 20:53:14 26° ENE 20:53:56 26° E visible
14 Mar 6.2 22:29:16 10° NNW 22:34:07 39° W 22:34:27 38° W visible
15 Mar 6.6 20:16:24 10° NE 20:19:17 15° ENE 20:21:09 13° E visible
15 Mar 5.2 21:55:29 10° N 22:00:42 70° W 22:01:41 55° SSW visible
